Change the Weather History Date:

Sunday, November 11, 2012

  Actual Average Record
Temperature  
Mean Temperature 41 °F -  
Max Temperature 50 °F 49 °F 57 °F (2005)
Min Temperature 32 °F 36 °F 26 °F (2010)
Degree Days  
Heating Degree Days 24    
Moisture  
Dew Point 36 °F    
Average Humidity 87    
Maximum Humidity 100    
Minimum Humidity 66    
Precipitation  
Precipitation 0.00 in 0.10 in - ()
Sea Level Pressure  
Sea Level Pressure 29.89 in    
Wind  
Wind Speed 2 mph ()    
Max Wind Speed 8 mph    
Max Gust Speed -    
Visibility 3.9 miles    
Events Fog    
Averages and records for this station are not official NWS values.
T = Trace of Precipitation, MM = Missing Value Source: Averaged Metar Reports

Daily Weather History Graph

Daily Weather History Graph

Search for Another Location

Airport or City:

Trip Planner

Search our weather history database for the weather conditions in past years. The results will help you decide how hot, cold, wet, or windy it might be!

Date:

Astronomy

Nov. 11, 2012 Rise Set
Actual Time 7:11 AM GMT 4:17 PM GMT
Civil Twilight 6:35 AM GMT 4:53 PM GMT
Nautical Twilight 5:55 AM GMT 5:33 PM GMT
Astronomical Twilight 5:16 AM GMT 6:12 PM GMT
Moon 3:51 AM GMT (11/11) 2:44 PM GMT (11/11)
Length of Visible Light 10h 18m
Length of Day
9h 06m
Waning Crescent, 8% of the Moon is Illuminated
Nov 11
Waning Crescent
Nov 13
New
Nov 20
First Quarter
Nov 28
Full
Dec 6
Last Quarter

Hourly Weather History & Observations

Time (GMT) Temp. Windchill Dew Point Humidity Pressure Visibility Wind Dir Wind Speed Gust Speed Precip Events Conditions
12:20 AM 35.6 °F - 33.8 °F 93% 29.59 in 0.5 mi Calm Calm - N/A Fog Fog
12:50 AM 35.6 °F - 33.8 °F 93% 29.59 in 1.7 mi Calm Calm - N/A   Mist
1:20 AM 35.6 °F - 33.8 °F 93% 29.62 in 0.7 mi Calm Calm - N/A   Scattered Clouds
1:50 AM 33.8 °F - 33.8 °F 100% 29.62 in 0.6 mi Calm Calm - N/A Fog Patches of Fog
2:20 AM 32.0 °F - 32.0 °F 100% 29.62 in 0.7 mi Variable 2.3 mph - N/A   Mostly Cloudy
2:50 AM 33.8 °F - 33.8 °F 100% 29.65 in 1.4 mi Calm Calm - N/A Fog Patches of Fog
3:20 AM 35.6 °F - 33.8 °F 93% 29.65 in - Calm Calm - N/A Fog Patches of Fog
3:50 AM 35.6 °F - 33.8 °F 93% 29.68 in 1.9 mi Variable 2.3 mph - N/A   Haze
4:20 AM 35.6 °F - 33.8 °F 93% 29.68 in 1.2 mi Calm Calm - N/A   Haze
4:50 AM 33.8 °F - 32.0 °F 93% 29.71 in 1.9 mi Calm Calm - N/A   Haze
5:20 AM 32.0 °F - 32.0 °F 100% 29.71 in 1.9 mi Calm Calm - N/A   Mist
5:50 AM 32.0 °F - 30.2 °F 93% 29.74 in 1.9 mi Variable 2.3 mph - N/A   Haze
6:20 AM 32.0 °F - 32.0 °F 100% 29.77 in 1.2 mi Variable 2.3 mph - N/A   Haze
6:50 AM 32.0 °F - 32.0 °F 100% 29.77 in 4.3 mi Calm Calm - N/A Fog Fog
7:20 AM 33.8 °F - 32.0 °F 93% 29.80 in 5.0 mi Variable 2.3 mph - N/A Fog Fog
7:50 AM 33.8 °F - 32.0 °F 93% 29.80 in 5.6 mi Variable 2.3 mph - N/A   Unknown
8:20 AM 35.6 °F - 33.8 °F 93% 29.83 in 5.6 mi South 2.3 mph - N/A Fog Fog
8:50 AM 39.2 °F - 37.4 °F 93% 29.83 in 6.2 mi Variable 2.3 mph - N/A   Partly Cloudy
9:20 AM 41.0 °F - 39.2 °F 93% 29.83 in - Calm Calm - N/A   Clear
9:50 AM 41.0 °F 38.0 °F 39.2 °F 93% 29.86 in - West 4.6 mph - N/A   Clear
10:20 AM 44.6 °F 43.1 °F 39.2 °F 81% 29.86 in - Variable 3.5 mph - N/A   Clear
10:50 AM 46.4 °F 42.9 °F 41.0 °F 81% 29.89 in - WNW 6.9 mph - N/A   Clear
11:20 AM 46.4 °F 42.9 °F 41.0 °F 81% 29.89 in 6.2 mi NW 6.9 mph - N/A   Partly Cloudy
11:50 AM 48.2 °F - 41.0 °F 76% 29.89 in 6.2 mi NW 4.6 mph - N/A   Partly Cloudy
12:20 PM 48.2 °F - 41.0 °F 76% 29.92 in 6.2 mi NW 5.8 mph - N/A   Partly Cloudy
12:50 PM 50.0 °F - 39.2 °F 66% 29.92 in 6.2 mi WNW 6.9 mph - N/A   Partly Cloudy
1:20 PM 50.0 °F - 39.2 °F 66% 29.92 in 6.2 mi NW 8.1 mph - N/A   Partly Cloudy
1:50 PM 50.0 °F - 39.2 °F 66% 29.92 in 6.2 mi NW 5.8 mph - N/A   Partly Cloudy
2:20 PM 50.0 °F - 39.2 °F 66% 29.95 in 6.2 mi WNW 5.8 mph - N/A   Partly Cloudy
2:50 PM 48.2 °F - 39.2 °F 71% 29.95 in 6.2 mi West 6.9 mph - N/A   Partly Cloudy
3:20 PM 48.2 °F - 37.4 °F 66% 29.98 in 6.2 mi WSW 5.8 mph - N/A   Partly Cloudy
3:50 PM 46.4 °F 44.3 °F 35.6 °F 66% 29.98 in 6.2 mi WSW 4.6 mph - N/A   Partly Cloudy
4:20 PM 46.4 °F 45.2 °F 35.6 °F 66% 30.01 in 6.2 mi WSW 3.5 mph - N/A   Partly Cloudy
4:50 PM 42.8 °F - 35.6 °F 76% 30.01 in - SW 2.3 mph - N/A   Clear
5:20 PM 41.0 °F - 35.6 °F 81% 30.01 in - SSW 2.3 mph - N/A   Clear
5:50 PM 39.2 °F 37.0 °F 35.6 °F 87% 30.04 in - South 3.5 mph - N/A   Clear
6:20 PM 39.2 °F 37.0 °F 35.6 °F 87% 30.04 in - Variable 3.5 mph - N/A   Clear
6:50 PM 39.2 °F 37.0 °F 35.6 °F 87% 30.06 in - SSW 3.5 mph - N/A   Clear
7:20 PM 39.2 °F 37.0 °F 35.6 °F 87% 30.06 in - South 3.5 mph - N/A   Clear
7:50 PM 39.2 °F 37.0 °F 35.6 °F 87% 30.06 in - SSW 3.5 mph - N/A   Clear
8:20 PM 39.2 °F - 37.4 °F 93% 30.06 in - South 2.3 mph - N/A   Clear
8:50 PM 37.4 °F - 35.6 °F 93% 30.09 in - Calm Calm - N/A   Clear
9:20 PM 37.4 °F - 35.6 °F 93% 30.09 in - SW 2.3 mph - N/A   Clear
9:50 PM 37.4 °F 34.9 °F 35.6 °F 93% 30.09 in - South 3.5 mph - N/A   Clear
10:20 PM 37.4 °F - 35.6 °F 93% 30.09 in - Variable 2.3 mph - N/A   Clear
10:50 PM 37.4 °F - 35.6 °F 93% 30.12 in - Calm Calm - N/A   Clear
11:20 PM 39.2 °F - 35.6 °F 87% 30.12 in - Calm Calm - N/A   Clear
11:50 PM 37.4 °F - 35.6 °F 93% 30.12 in - Calm Calm - N/A   Clear